San Angelo, TX

11:50 PM CDT on May 22, 2017 (GMT -0500)
San Angelo Regional-Mathis

Weather History for KSJT - October, 2011

Change the Weather History Date:

Saturday, October 8, 2011

  Actual Average Record
Temperature  
Mean Temperature 70 °F 69 °F  
Max Temperature 80 °F 81 °F 99 °F (1979)
Min Temperature 60 °F 56 °F 36 °F (2012)
Degree Days  
Heating Degree Days 0 1  
Month to date heating degree days 0 8  
Since 1 July heating degree days 0 17  
Cooling Degree Days 5 5  
Month to date cooling degree days 74 47  
Year to date cooling degree days 3620 2412  
Growing Degree Days 20 (Base 50)    
Moisture  
Dew Point 61 °F    
Average Humidity 76    
Maximum Humidity 93    
Minimum Humidity 58    
Precipitation  
Precipitation 2.56 in 0.09 in 2.56 in (2011)
Month to date precipitation 2.57 0.69  
Year to date precipitation 7.58 17.22  
Snow  
Snow 0.00 in 0.00 in 0.00 in (2002)
Month to date snowfall 0.0 0.0  
Since 1 July snowfall 0.0 0.0  
Snow Depth 0.00 in    
Sea Level Pressure  
Sea Level Pressure 29.91 in    
Wind  
Wind Speed 15 mph (NE)    
Max Wind Speed 35 mph    
Max Gust Speed 39 mph    
Visibility 6 miles    
Events Fog , Rain , Thunderstorm    
T = Trace of Precipitation, MM = Missing Value Source: NWS Daily Summary

Daily Weather History Graph

Daily Weather History Graph

Search for Another Location

Airport or City:

Trip Planner

Search our weather history database for the weather conditions in past years. The results will help you decide how hot, cold, wet, or windy it might be!

Date:

Astronomy

Oct. 08, 2011 Rise Set
Actual Time 7:40 AM CDT 7:18 PM CDT
Civil Twilight 7:15 AM CDT 7:42 PM CDT
Nautical Twilight 6:47 AM CDT 8:10 PM CDT
Astronomical Twilight 6:19 AM CDT 8:39 PM CDT
Moon 5:21 PM CDT (10/8) 4:39 AM CDT (10/8)
Length of Visible Light 12h 27m
Length of Day
11h 38m
Waxing Gibbous, 90% of the Moon is Illuminated
Oct 8
Waxing Gibbous
Oct 11
Full
Oct 19
Last Quarter
Oct 26
New
Nov 2
First Quarter

Hourly Weather History & Observations

Time (CDT) Temp. Dew Point Humidity Pressure Visibility Wind Dir Wind Speed Gust Speed Precip Events Conditions
12:51 AM 78.8 °F 64.4 °F 61% 29.90 in 10.0 mi SSE 18.4 mph 35.7 mph N/A   Partly Cloudy
2:51 AM 77.0 °F 64.0 °F 64% 29.83 in 10.0 mi SSE 13.8 mph 21.9 mph N/A   Overcast
3:51 AM 77.0 °F 64.0 °F 64% 29.84 in 10.0 mi South 16.1 mph 21.9 mph N/A   Mostly Cloudy
4:51 AM 75.9 °F 64.0 °F 67% 29.82 in 10.0 mi SSE 16.1 mph 23.0 mph N/A   Mostly Cloudy
5:51 AM 75.9 °F 64.0 °F 67% 29.81 in 10.0 mi SSE 16.1 mph 27.6 mph N/A   Partly Cloudy
6:51 AM 75.0 °F 63.0 °F 66% 29.84 in 10.0 mi SSE 21.9 mph 28.8 mph N/A   Clear
7:51 AM 75.0 °F 63.0 °F 66% 29.84 in 10.0 mi SSE 17.3 mph - N/A   Clear
8:51 AM 75.9 °F 64.0 °F 67% 29.86 in 10.0 mi South 12.7 mph 19.6 mph N/A   Partly Cloudy
9:16 AM 75.2 °F 64.4 °F 69% 29.94 in 10.0 mi South 15.0 mph 23.0 mph N/A   Mostly Cloudy
9:51 AM 77.0 °F 64.0 °F 64% 29.88 in 10.0 mi South 12.7 mph 21.9 mph N/A   Overcast
10:51 AM 78.1 °F 63.0 °F 60% 29.87 in 10.0 mi South 16.1 mph 28.8 mph N/A   Overcast
11:51 AM 79.0 °F 63.0 °F 58% 29.86 in 10.0 mi South 18.4 mph 26.5 mph N/A   Overcast
12:21 PM 66.2 °F 60.8 °F 83% 29.95 in 6.0 mi West 15.0 mph 31.1 mph 0.00 in Rain Light Rain
12:51 PM 64.0 °F 60.1 °F 87% 29.91 in 3.0 mi WNW 21.9 mph - 0.01 in Rain Heavy Rain
12:55 PM 64.4 °F 60.8 °F 88% 29.96 in 2.0 mi NW 17.3 mph 26.5 mph 0.05 in Rain , Thunderstorm Heavy Thunderstorms and Rain
1:02 PM 64.4 °F 60.8 °F 88% 29.95 in 4.0 mi NW 11.5 mph 21.9 mph 0.06 in Rain , Thunderstorm Light Thunderstorms and Rain
1:14 PM 62.6 °F 60.8 °F 94% 29.96 in 2.5 mi NNW 8.1 mph - 0.08 in Rain , Thunderstorm Heavy Thunderstorms and Rain
1:17 PM 62.6 °F 60.8 °F 94% 29.96 in 1.5 mi North 8.1 mph - 0.13 in Rain , Thunderstorm Heavy Thunderstorms and Rain
1:27 PM 62.6 °F 60.8 °F 94% 29.95 in 2.0 mi North 9.2 mph - 0.27 in Rain , Thunderstorm Thunderstorms and Rain
1:34 PM 62.6 °F 60.8 °F 94% 29.95 in 4.0 mi NNW 11.5 mph - 0.30 in Rain , Thunderstorm Thunderstorms and Rain
1:49 PM 62.6 °F 60.8 °F 94% 29.96 in 2.5 mi WNW 10.4 mph - 0.32 in Rain , Thunderstorm Thunderstorms and Rain
1:51 PM 63.0 °F 60.1 °F 90% 29.91 in 2.0 mi NW 9.2 mph - 0.35 in Rain , Thunderstorm Heavy Thunderstorms and Rain
1:57 PM 62.6 °F 60.8 °F 94% 29.96 in 0.8 mi NW 3.5 mph - 0.08 in Rain , Thunderstorm Heavy Thunderstorms and Rain
2:06 PM 62.6 °F 60.8 °F 94% 29.95 in 0.5 mi WNW 9.2 mph - 0.28 in Fog , Rain , Thunderstorm Heavy Thunderstorms and Rain
2:22 PM 62.6 °F 59.0 °F 88% 29.94 in 1.5 mi NNW 6.9 mph - N/A Rain , Thunderstorm Thunderstorms and Rain
2:25 PM 62.6 °F 60.8 °F 94% 29.94 in 3.0 mi NW 6.9 mph - 0.62 in Rain , Thunderstorm Thunderstorms and Rain
2:51 PM 63.0 °F 60.1 °F 90% 29.88 in 8.0 mi NW 9.2 mph - 0.65 in Rain , Thunderstorm Light Thunderstorms and Rain
3:30 PM 62.6 °F 60.8 °F 94% 29.91 in 2.0 mi NNW 8.1 mph - 0.09 in Rain , Thunderstorm Thunderstorms and Rain
3:39 PM 64.4 °F 60.8 °F 88% 29.91 in 10.0 mi NW 6.9 mph - 0.10 in Rain , Thunderstorm Light Thunderstorms and Rain
3:46 PM 64.4 °F 60.8 °F 88% 29.91 in 10.0 mi NW 4.6 mph - 0.10 in Thunderstorm Thunderstorm
3:51 PM 64.0 °F 61.0 °F 90% 29.86 in 10.0 mi WNW 6.9 mph - 0.10 in Thunderstorm Thunderstorm
4:51 PM 64.0 °F 61.0 °F 90% 29.88 in 4.0 mi North 4.6 mph - 0.08 in Rain , Thunderstorm Thunderstorms and Rain
4:59 PM 64.4 °F 60.8 °F 88% 29.93 in 4.0 mi NNE 8.1 mph - 0.05 in Rain , Thunderstorm Heavy Thunderstorms and Rain
5:07 PM 64.4 °F 60.8 °F 88% 29.93 in 5.0 mi NE 8.1 mph - 0.07 in Rain , Thunderstorm Thunderstorms and Rain
5:15 PM 64.4 °F 60.8 °F 88% 29.93 in 7.0 mi North 10.4 mph - 0.08 in Rain , Thunderstorm Light Thunderstorms and Rain
5:24 PM 64.4 °F 60.8 °F 88% 29.92 in 6.0 mi NNW 10.4 mph - 0.09 in Rain , Thunderstorm Light Thunderstorms and Rain
5:51 PM 64.0 °F 61.0 °F 90% 29.89 in 10.0 mi North 10.4 mph - 0.11 in Rain , Thunderstorm Light Thunderstorms and Rain
6:22 PM 62.6 °F 60.8 °F 94% 29.92 in 10.0 mi NNE 15.0 mph - 0.02 in Rain , Thunderstorm Light Thunderstorms and Rain
6:34 PM 62.6 °F 60.8 °F 94% 29.90 in 4.0 mi NE 13.8 mph - 0.06 in Rain , Thunderstorm Heavy Thunderstorms and Rain
6:51 PM 63.0 °F 60.1 °F 90% 29.94 in 2.0 mi Variable 3.5 mph - 0.18 in Rain , Thunderstorm Heavy Thunderstorms and Rain
6:57 PM 62.6 °F 60.8 °F 94% 30.00 in 1.0 mi SSE 6.9 mph - 0.18 in Rain , Thunderstorm Heavy Thunderstorms and Rain
7:08 PM 62.6 °F 60.8 °F 94% 29.96 in 1.8 mi East 12.7 mph - 0.47 in Rain , Thunderstorm Heavy Thunderstorms and Rain
7:13 PM 62.6 °F 60.8 °F 94% 29.94 in 3.0 mi ENE 11.5 mph - N/A Rain , Thunderstorm Heavy Thunderstorms and Rain
7:23 PM 62.6 °F 60.8 °F 94% 29.93 in 7.0 mi ENE 15.0 mph - 0.52 in Rain , Thunderstorm Light Thunderstorms and Rain
7:30 PM 62.6 °F 60.8 °F 94% 29.92 in 8.0 mi NE 13.8 mph - 0.53 in Rain , Thunderstorm Light Thunderstorms and Rain
7:51 PM 63.0 °F 61.0 °F 93% 29.87 in 8.0 mi ENE 16.1 mph - 0.57 in Rain , Thunderstorm Thunderstorms and Rain
8:25 PM 62.6 °F 60.8 °F 94% 29.95 in 6.0 mi East 15.0 mph 24.2 mph 0.10 in Rain , Thunderstorm Thunderstorms and Rain
8:51 PM 61.0 °F 57.9 °F 90% 29.91 in 5.0 mi East 21.9 mph - 0.23 in Rain , Thunderstorm Thunderstorms and Rain
8:59 PM 62.6 °F 57.2 °F 82% 29.97 in 6.0 mi East 17.3 mph 27.6 mph N/A Rain , Thunderstorm Rain
9:33 PM 60.8 °F 57.2 °F 88% 29.94 in 5.0 mi East 26.5 mph 32.2 mph 0.17 in Rain Heavy Rain
9:41 PM 60.8 °F 57.2 °F 88% 29.94 in 5.0 mi East 20.7 mph 31.1 mph 0.20 in Rain , Thunderstorm Thunderstorms and Rain
9:51 PM 61.0 °F 57.9 °F 90% 29.90 in 7.0 mi East 17.3 mph 29.9 mph 0.22 in Rain Light Rain
10:09 PM 60.8 °F 57.2 °F 88% 29.91 in 10.0 mi East 18.4 mph - 0.02 in Rain , Thunderstorm Light Rain
10:46 PM 62.6 °F 59.0 °F 88% 29.93 in 10.0 mi ESE 18.4 mph 28.8 mph 0.03 in Rain , Thunderstorm Light Rain
10:51 PM 62.6 °F 59.0 °F 88% 29.93 in 10.0 mi East 18.4 mph 26.5 mph N/A Rain , Thunderstorm Light Rain
11:06 PM 62.6 °F 59.0 °F 88% 29.95 in 10.0 mi SSE 13.8 mph 26.5 mph 0.00 in Rain Light Rain
11:20 PM 62.6 °F 59.0 °F 88% 29.90 in 10.0 mi East 25.3 mph 32.2 mph 0.00 in Rain , Thunderstorm Light Rain
11:51 PM 62.1 °F 59.0 °F 90% 29.85 in 10.0 mi East 26.5 mph 36.8 mph 0.03 in Rain , Thunderstorm Light Thunderstorms and Rain